Regional Weather Roundup
Issued by NWS

Home | Current Version | Previous Version | Text Only | Print | Product List | Glossary On
Versions: 1 2 3 4 5 6 7 8 9 10 11 12 13 14 15 16 17 18 19 20 21 22 23 24 25 26 27 28 29 30 31 32 33 34 35 36 37 38 39 40 41 42 43 44 45 46 47 48 49 50
000
ASUS43 KLSX 231959
RWRMO

WEATHER SUMMARY FOR MISSOURI
NATIONAL WEATHER SERVICE SPRINGFIELD MO
300 PM CDT TUE SEP 23 2014

NOTE: "FAIR" INDICATES FEW OR NO CLOUDS BELOW 12,000 FEET WITH NO
       SIGNIFICANT WEATHER AND/OR OBSTRUCTIONS TO VISIBILITY.
       CURRENT SKY AND/OR WEATHER CONDITIONS ARE NOT AVAILABLE FOR
       CHILLICOTHE AND FARMINGTON.

MOZ001>031-035>038-043-044-053-054-232100-
...NORTHERN AND WESTERN MISSOURI...

CITY           SKY/WX    TMP DP  RH WIND       PRES   REMARKS
KANSAS CTY INT PTSUNNY   71  53  52 S13       30.19F
KANSAS C DTWN  MOSUNNY   74  53  48 S8        30.19F
LEE`S SUMMIT   MOSUNNY   73  50  44 SE9G18    30.21F
ST JOSEPH      PTSUNNY   74  54  49 S13       30.18S
KIRKSVILLE     PTSUNNY   72  51  47 SE10      30.24F

$$
MOZ066>068-077>081-088>096-101>105-232100-
...SOUTHWEST MISSOURI...

CITY           SKY/WX    TMP DP  RH WIND       PRES   REMARKS
SPRINGFIELD    MOSUNNY   74  45  35 SE12      30.21F
JOPLIN         SUNNY     74  51  44 SE8       30.20F

$$
MOZ032>034-039>042-045>050-055>058-069>072-232100-
...CENTRAL MISSOURI...

CITY           SKY/WX    TMP DP  RH WIND       PRES   REMARKS
COLUMBIA       SUNNY     72  46  39 SE9G17    30.24F
JEFFERSON CITY MOSUNNY   75  46  35 SE9       30.23F
ROLLA          SUNNY     75  45  34 E7        30.23F
SEDALIA        PTSUNNY   74  45  35 SE13G20   30.22F
OSAGE BEACH    MOSUNNY   73  45  35 SE8       30.23F

$$
MOZ051-052-059>065-232100-
...EAST CENTRAL MISSOURI...

CITY           SKY/WX    TMP DP  RH WIND       PRES   REMARKS
ST LOUIS INTL  PTSUNNY   75  48  38 E5        30.27F
SPIRIT OF STL  MOSUNNY   72  48  42 SE6       30.25F
ST CHARLES     MOSUNNY   73  48  41 SE9       30.26F

$$
MOZ072>076-082>087-097>100-106>115-232100-
...SOUTH CENTRAL AND SOUTHEAST MISSOURI...

CITY           SKY/WX    TMP DP  RH WIND       PRES   REMARKS
CAPE GIRARDEAU SUNNY     75  46  35 E7        30.24F
FARMINGTON     SUNNY     73  45  35 E6        30.27F
POPLAR BLUFF   MOSUNNY   75  44  33 E6        30.22F
WEST PLAINS    SUNNY     73  43  33 E3        30.25F

$$


USA.gov is the U.S. government's official web portal to all federal, state and local government web resources and services.